Location: Les Coudrans
(46.1056°N, 1.1158°W)
Time: 21:27:29
(UTC+00:00)

PSLV R/B - Pass Details

Date: 03 March 2021
Orbit: 567 x 598 km, 98.2° (Epoch: 22 April)

Event Time Altitude Azimuth Distance (km) Brightness Sun altitude
Rises 18:32:31 0° 17° (NNE) 2,808 7.2 -7.5°
Reaches altitude 10° 18:34:44 10° 22° (NNE) 1,898 6.3 -7.9°
Maximum altitude 18:38:46 54° 101° (E) 702 4.0 -8.6°
Drops below altitude 10° 18:42:44 10° 179° (S) 1,868 6.5 -9.3°
Sets 18:44:53 0° 184° (S) 2,757 7.4 -9.6°
